OPS 4682 DEB, 38436

Orbit data source: Space-Track

OPS 4682 DEB, 38436 is space debris in LEO originally from a launch on Sat, 03 Apr 1965 UTC launched from the Air Force Western Test Range (AFWTR). Debris objects in space refer to the collection of defunct objects orbiting the Earth. Examples of debris include non-operational satellites, rocket bodies, and fragments generated from explosions, collisions, or faulty payload assembly.

Loading next visibility...
Identifier
38436, 1965-027ER
Orbit
LEO
Country
Flag of USUS
Related business
Manufacturer
Unknown
Mission
Spacecraft
Bus & Motor
Unknown
Mass
Unknown
Launch date (UTC)
1965-04-03 (61 years ago)
Launch vehicle
Unknown
Launch site
Air Force Western Test Range (AFWTR)
Object type
Payload
Rocket body
Debris
Shape & HBR
Unknown shape, 0.1 m
Radar Cross Section
Medium (>0.1 m² and <1 m²)

Expand to show TLE details & history
Last TLE update: 6 days ago

TLE from 6 days ago
0 OPS 4682 DEB
1 38436U 65027ER  26202.73465039  .00000672  00000-0  22085-2 0  9997
2 38436  90.2408   3.6413 0023676 196.1566 163.8804 12.99971520619915
Epoch: 2026-07-21T17:37Z
TLE epoch observation values (Epoch: 2026-07-21T17:37:53.793Z)
Latitude
-0.00001°
Longitude
159.66708°
Altitude
1,282.466 km
Speed
7.207 km/s
True Right ascension
00h 14m 33s
True Declination
0° 00' 00"
Sunlit
Object was in daylight at epoch
Visualization orbit readout
Latitude
Unknown
Longitude
Unknown
Altitude
Unknown
Speed
Unknown
Apparent Right ascension
Unknown
Apparent Declination
Unknown
Sunlit
N/A
Visualization observer readout
Local Sidereal Time
20:29:53
Azimuth
Unknown
Elevation
Unknown
Doppler factor
Unknown
Orbital elements
Apogee altitude
1,277.408 km
Perigee altitude
1,241.243 km
Semi-major axis
7,637.462 km
Eccentricity
0.00237
Inclination
90.2408°
RAAN
3.6413°
Arg. of periapsis
196.1566°
True anomaly
163.95551°
Mean anomaly
163.8804°
Eccentric anomaly
163.91798°
Mean motion
3.25177 °/min
Orbital period
110.71 mins
BSTAR
0.0022085
Loading maneuver chart data...
Computing Atmospheric mass density...
Loading historical data...
Loading historical data...
Loading historical data...
Loading historical data...
Loading historical data...
Loading historical data...
Loading historical data...

Documentation

Showing up to 5 results
|